Location: Northcutt
(34.7304°N, 84.4305°W)
Time: 03:22:47
(UTC+00:00)

Vanguard 2 - Pass Details

Date: 05 October 2022
Orbit: 553 x 2933 km, 32.9° (Epoch: 05 December)

Event Time Altitude Azimuth Distance (km) Brightness Sun altitude
Rises 01:44:33 0° 280° (W) 6,675 13.5 -30.7°
Reaches altitude 10° 01:50:25 10° 268° (W) 5,754 12.7 -31.9°
Maximum altitude 02:02:21 23° 225° (SW) 4,618 11.6 -34.2°
Drops below altitude 10° 02:13:06 10° 181° (S) 5,085 11.5 -36.3°
Enters shadow 02:14:22 - 177° (S) 5,236 11.5 -36.5°
Sets 02:17:56 0° 167° (SSE) 5,742 - -37.2°
